Location: Wald
(31.7579°N, 86.6655°W)
Time: 11:36:15
(UTC+00:00)

Meteor 1-12 Rocket - Pass Details

Date: 14 July 2020
Orbit: 856 x 925 km, 81.2° (Epoch: 08 August)

Event Time Altitude Azimuth Distance (km) Brightness Sun altitude
Exits shadow 09:38:51 - 182° (S) 3,034 6.7 -14.0°
Reaches altitude 10° 09:40:16 10° 181° (S) 2,490 6.3 -13.8°
Maximum altitude 09:45:55 76° 95° (E) 896 4.4 -12.8°
Drops below altitude 10° 09:51:40 10° 11° (N) 2,543 7.4 -11.8°
Sets 09:54:09 0° 10° (N) 3,496 8.1 -11.4°
